Regional Weather Roundup
Issued by NWS Little Rock, AR

Home | Current Version | Previous Version | Text Only | Print | Product List | Glossary On
Versions: 1 2 3 4 5 6 7 8 9 10 11 12 13 14 15 16 17 18 19 20 21 22 23 24 25 26 27 28 29 30 31 32 33 34 35 36 37 38 39 40 41 42 43 44 45 46 47 48 49
000
ASUS44 KLZK 280905
RWRLZK

WEATHER ROUNDUP FOR ARKANSAS
NATIONAL WEATHER SERVICE LITTLE ROCK AR
300 AM CST SUN DEC 28 2014

NOTE: "FAIR" INDICATES FEW OR NO CLOUDS BELOW 12,000 FEET WITH NO
SIGNIFICANT WEATHER AND/OR OBSTRUCTIONS TO VISIBILITY.

ARZ001-003-010-029-281000-
NORTHWEST ARKANSAS

CITY           SKY/WX    TMP DP  RH WIND       PRES   REMARKS
FAYETTEVILLE   CLOUDY    28  26  92 N3        30.24F
FORT SMITH     CLOUDY    32  28  85 W8        30.27F WCI  25
HARRISON       CLOUDY    29  26  89 NW7       30.22F WCI  22
BENTONVILLE    CLOUDY    28  23  80 N5        30.24F WCI  23
ROGERS         CLOUDY    26  24  92 CALM      30.24F
SILOAM SPGS    CLOUDY    27  19  74 CALM      30.26S
HIGHFILL       CLOUDY    27  24  89 N5        30.24S WCI  22
$$

ARZ004-005-016-281000-
NORTH CENTRAL ARKANSAS

CITY           SKY/WX    TMP DP  RH WIND       PRES   REMARKS
BATESVILLE     CLOUDY    37  32  81 NW5       30.22S
FLIPPIN        CLOUDY    30  25  80 NW5       30.24F WCI  25
MTN HOME       CLOUDY    31  27  85 NW5       30.23S WCI  26
$$

ARZ040-041-281000-
WEST CENTRAL ARKANSAS

CITY           SKY/WX    TMP DP  RH WIND       PRES   REMARKS
MENA           CLOUDY    36  30  80 N6        30.20F
MOUNT IDA      CLOUDY    36  32  85 NW3       30.18F
$$

ARZ009-017-025-026-028-281000-
NORTHEAST ARKANSAS

CITY           SKY/WX    TMP DP  RH WIND       PRES   REMARKS
CORNING        CLOUDY    37  34  87 N14       30.21F
JONESBORO      CLOUDY    39  37  92 N5        30.21R
NEWPORT        CLOUDY    38  36  92 NW13      30.24R
WALNUT RIDGE   CLOUDY    37  32  81 N13       30.21S
BLYTHEVILLE    CLOUDY    39  37  92 N18       30.19R
$$

ARZ022-023-033-042-044-281000-
CENTRAL ARKANSAS

CITY           SKY/WX    TMP DP  RH WIND       PRES   REMARKS
LITTLE ROCK    CLOUDY    39  33  79 N9        30.20F
N LITTLE ROCK    N/A     37  35  90 N8G16     30.20F
JACKSONVILLE   CLOUDY    38  34  84 NW6       30.19F
SEARCY         CLOUDY    39  34  82 N9        30.21S
HOT SPRINGS    CLOUDY    39  35  86 NW6       30.20F
RUSSELLVILLE   CLOUDY    37  34  89 NW8       30.22F
CLINTON        FAIR      36  30  80 N5        30.23F
$$

ARZ036-281000-
EAST ARKANSAS

CITY           SKY/WX    TMP DP  RH WIND       PRES   REMARKS
WEST MEMPHIS   CLOUDY    41  40  96 N15G22    30.17R
$$

ARZ050-053-066-070-073-281000-
SOUTHWEST ARKANSAS

CITY           SKY/WX    TMP DP  RH WIND       PRES   REMARKS
ARKADELPHIA    CLOUDY    42  42 100 N6        30.21S
CAMDEN         CLOUDY    41  39  93 MISG      30.20S FOG
TEXARKANA      CLOUDY    38  36  92 N6        30.18F
EL DORADO      CLOUDY    42  41  96 NW6       30.18R FOG
DE QUEEN       CLOUDY    37  33  85 NW3       30.18F
$$

ARZ056-057-069-281000-
SOUTHEAST ARKANSAS

CITY           SKY/WX    TMP DP  RH WIND       PRES   REMARKS
PINE BLUFF     CLOUDY    40  35  83 N15       30.18F
STUTTGART      CLOUDY    39  36  87 N15       30.19F
MONTICELLO     CLOUDY    42  40  92 N6        30.16R

$$




USA.gov is the U.S. government's official web portal to all federal, state and local government web resources and services.